KJ4AJP Weather Reports


time (UTC)temp
C
wind
direction
speed
KPH
gust
KPH
rain 1hr
cm
rain 24hr
cm
rain mn
cm
humidity
%
barometer
mb
20260506114411 9 53 0.0 0.0 0.00 0.33 0.33 97 1011.8
20260506113910 9 45 0.0 0.0 0.00 0.33 0.33 97 1012.0
20260506113407 9 62 3.2 3.2 0.00 0.33 0.33 97 1011.7
20260506112903 10 51 0.0 0.0 0.00 0.33 0.33 97 1012.1
20260506112401 10 56 0.0 0.0 0.00 0.33 0.33 98 1011.9
20260506111858 10 44 0.0 0.0 0.00 0.33 0.33 98 1011.9
20260506111356 9 56 0.0 0.0 0.00 0.33 0.33 98 1011.7
20260506110853 10 59 0.0 0.0 0.00 0.33 0.33 98 1011.9
20260506110350 10 59 1.6 1.6 0.00 0.33 0.33 98 1011.9
20260506105847 10 68 1.6 1.6 0.00 0.33 0.33 98 1011.8
20260506105343 10 58 0.0 0.0 0.00 0.33 0.33 98 1011.5
20260506104841 10 55 0.0 0.0 0.00 0.33 0.33 98 1011.9
20260506104338 10 55 0.0 0.0 0.00 0.33 0.33 98 1011.8
20260506103836 10 54 0.0 0.0 0.00 0.33 0.33 98 1011.7
20260506103333 10 58 0.0 0.0 0.00 0.33 0.33 98 1011.4
20260506102831 10 59 0.0 0.0 0.00 0.33 0.33 98 1011.2
20260506102328 10 55 0.0 0.0 0.00 0.33 0.33 98 1011.3
20260506101825 10 51 0.0 0.0 0.00 0.33 0.33 98 1011.1
20260506101321 10 57 0.0 0.0 0.00 0.33 0.33 98 1010.8
20260506100820 10 60 0.0 0.0 0.00 0.33 0.33 98 1011.0
20260506100318 10 55 0.0 0.0 0.00 0.33 0.33 98 1011.0
20260506095816 10 38 0.0 0.0 0.00 0.33 0.33 98 1011.1
20260506095312 10 52 0.0 0.0 0.00 0.33 0.33 98 1011.2
20260506094809 10 48 0.0 0.0 0.00 0.33 0.33 98 1010.9
20260506094308 10 51 0.0 0.0 0.00 0.33 0.33 98 1011.0
20260506093805 10 48 1.6 1.6 0.00 0.33 0.33 98 1010.6
20260506093302 10 57 0.0 1.6 0.00 0.33 0.33 98 1011.0
20260506092800 10 47 0.0 1.6 0.00 0.33 0.33 98 1010.8
20260506092258 10 47 0.0 0.0 0.00 0.33 0.33 98 1010.7
20260506091755 10 63 0.0 1.6 0.00 0.33 0.33 98 1010.8
20260506091252 10 39 0.0 1.6 0.00 0.33 0.33 98 1010.5
20260506090750 10 38 3.2 3.2 0.00 0.33 0.33 98 1010.5
20260506090247 10 44 0.0 0.0 0.00 0.33 0.33 98 1009.9
20260506085744 10 39 1.6 1.6 0.00 0.33 0.33 98 1010.0
20260506085240 10 40 0.0 0.0 0.00 0.33 0.33 98 1010.0
20260506084736 10 54 0.0 1.6 0.00 0.33 0.33 98 1009.8
20260506084233 10 52 0.0 0.0 0.00 0.33 0.33 98 1009.6
20260506083730 10 63 0.0 0.0 0.00 0.33 0.33 98 1009.7
20260506083228 10 47 0.0 1.6 0.18 0.33 0.33 98 1009.9
20260506082725 10 46 1.6 1.6 0.18 0.33 0.33 98 1010.1
20260506082220 10 64 0.0 0.0 0.00 0.30 0.30 98 1010.0
20260506081718 10 44 0.0 0.0 0.00 0.30 0.30 98 1009.6
20260506081215 10 44 1.6 1.6 0.00 0.30 0.30 98 1009.5
20260506080714 10 57 0.0 1.6 0.00 0.30 0.30 98 1009.9
20260506080210 10 83 1.6 1.6 0.00 0.30 0.30 98 1009.6
20260506073154 10 24 3.2 4.8 0.00 0.30 0.30 98 1009.8
20260506072650 10 29 1.6 4.8 0.00 0.30 0.30 98 1009.6
20260506072148 10 70 1.6 1.6 0.18 0.30 0.30 98 1010.4
20260506071645 10 45 0.0 1.6 0.18 0.30 0.30 98 1009.6
20260506071143 10 58 0.0 0.0 0.00 0.28 0.28 98 1009.9
20260506070640 10 54 0.0 0.0 0.00 0.28 0.28 98 1010.0
20260506070137 10 42 1.6 1.6 0.00 0.28 0.28 98 1009.9
20260506062114 11 53 0.0 0.0 0.00 0.20 0.20 98 1008.9
20260506061610 11 47 1.6 1.6 0.61 0.20 0.20 98 1008.7
20260506061108 11 43 0.0 0.0 0.61 0.20 0.20 98 1009.2
20260506060606 11 77 1.6 3.2 0.30 0.13 0.13 98 1009.1
20260506051035 11 70 1.6 1.6 0.00 0.00 0.00 97 1008.1
20260506050533 11 75 0.0 0.0 0.00 0.00 0.00 98 1008.5
20260506045023 11 45 1.6 1.6 0.00 2.57 2.57 97 1008.4
20260506044521 12 42 1.6 1.6 0.00 2.57 2.57 97 1008.3
20260506044018 12 58 0.0 1.6 0.18 2.57 2.57 97 1008.1
20260506043515 12 44 1.6 1.6 0.36 2.57 2.57 97 1008.2
20260506043013 12 53 0.0 0.0 0.48 2.54 2.54 96 1008.0
20260506042512 12 76 1.6 1.6 1.50 2.51 2.51 96 1008.1
20260506042010 13 64 0.0 0.0 1.68 2.49 2.49 96 1008.4
20260506041508 13 33 3.2 3.2 1.68 2.26 2.26 96 1008.4
20260506041004 14 58 0.0 0.0 1.50 2.18 2.18 96 1008.0
20260506040502 14 41 1.6 1.6 1.37 2.03 2.03 96 1007.9
20260506035958 15 72 0.0 0.0 1.07 1.93 1.93 96 1007.7
20260506035455 15 35 1.6 1.6 0.48 1.83 1.83 95 1008.3
20260506034951 15 49 0.0 1.6 0.18 1.78 1.78 95 1007.5
20260506034449 16 46 1.6 1.6 0.13 1.75 1.75 94 1007.5
20260506033946 17 12 3.2 3.2 0.30 1.75 1.75 95 1007.6
20260506033444 18 348 1.6 3.2 0.79 1.73 1.73 95 1007.5
20260506032940 18 24 1.6 3.2 2.87 1.70 1.70 96 1007.2
20260506032437 18 32 3.2 3.2 2.46 1.63 1.63 95 1006.5
20260506031933 18 49 0.0 0.0 0.30 1.24 1.24 95 1007.3
20260506031431 18 261 3.2 4.8 0.18 1.22 1.22 94 1006.4
20260506030929 18 33 1.6 3.2 0.00 1.19 1.19 95 1006.2
20260506030427 18 47 1.6 1.6 0.00 1.19 1.19 96 1006.3
20260506025923 18 277 4.8 9.7 0.00 1.19 1.19 96 1006.4
20260506025420 18 51 1.6 1.6 0.00 1.19 1.19 96 1006.0
20260506024917 18 257 3.2 4.8 0.00 1.19 1.19 97 1006.1
20260506024414 18 43 4.8 4.8 0.00 1.19 1.19 97 1006.2
20260506023909 18 79 1.6 1.6 0.00 1.19 1.19 97 1006.0
20260506023407 17 249 1.6 3.2 0.00 1.19 1.19 97 1006.3
20260506022903 17 56 0.0 0.0 0.00 1.19 1.19 97 1006.2
20260506022401 17 55 0.0 1.6 0.00 1.19 1.19 97 1006.3
20260506021859 17 57 0.0 1.6 0.00 1.19 1.19 97 1006.2
20260506021355 17 71 1.6 1.6 0.00 1.19 1.19 97 1006.3
20260506020852 17 30 3.2 3.2 0.00 1.19 1.19 98 1006.3
20260506020350 17 65 1.6 1.6 0.00 1.19 1.19 98 1006.2
20260506015847 17 17 1.6 1.6 0.00 1.19 1.19 98 1006.3
20260506015345 17 30 1.6 3.2 0.00 1.19 1.19 98 1006.1
20260506014841 17 62 0.0 0.0 0.00 1.19 1.19 98 1006.2
20260506014338 17 331 1.6 1.6 0.00 1.19 1.19 98 1006.3
20260506013835 17 36 0.0 0.0 0.00 1.19 1.19 98 1006.1
20260506013333 17 58 3.2 3.2 0.00 1.19 1.19 98 1005.9
20260506012829 17 6 0.0 0.0 0.00 1.19 1.19 98 1006.0
20260506012326 17 301 3.2 3.2 0.00 1.19 1.19 98 1006.4
20260506011823 17 38 0.0 1.6 0.00 1.19 1.19 98 1006.4
20260506011320 17 302 3.2 3.2 0.00 1.19 1.19 98 1006.2
20260506010817 17 38 1.6 1.6 0.00 1.19 1.19 98 1006.0
20260506010315 17 57 0.0 1.6 0.00 1.19 1.19 98 1006.0
20260506005812 17 61 0.0 0.0 0.00 1.19 1.19 98 1006.1
20260506005308 17 84 1.6 3.2 0.00 1.19 1.19 98 1006.1
20260506004805 17 56 0.0 0.0 0.00 1.19 1.19 98 1006.0
20260506004302 17 54 0.0 0.0 0.13 1.19 1.19 98 1006.2
20260506003759 17 279 3.2 3.2 0.13 1.19 1.19 98 1006.2
20260506003255 17 81 1.6 3.2 0.00 1.17 1.17 98 1006.4
20260506002751 17 61 0.0 1.6 0.00 1.17 1.17 98 1006.4
20260506002247 17 49 0.0 0.0 0.18 1.17 1.17 98 1006.7
20260506001743 17 58 0.0 0.0 0.18 1.17 1.17 98 1006.5
20260506001241 17 61 0.0 1.6 0.00 1.14 1.14 98 1006.4
20260506000737 17 45 0.0 1.6 0.00 1.14 1.14 98 1006.5
20260506000235 17 38 0.0 1.6 0.00 1.14 1.14 98 1006.4
20260505235732 17 45 0.0 0.0 0.00 1.14 1.14 98 1006.4
20260505235230 17 31 1.6 3.2 0.00 1.14 1.14 98 1006.5
20260505234726 17 68 0.0 1.6 0.13 1.14 1.14 98 1006.6
20260505234224 17 53 1.6 3.2 0.13 1.14 1.14 98 1006.9
20260505233720 17 67 0.0 0.0 0.00 1.12 1.12 98 1006.9
20260505233218 17 123 3.2 3.2 0.00 1.12 1.12 98 1006.9
20260505232715 17 323 1.6 3.2 0.00 1.12 1.12 97 1006.9
20260505232213 17 36 0.0 1.6 0.00 1.12 1.12 97 1006.9
20260505231709 17 44 3.2 3.2 0.00 1.12 1.12 97 1006.9
20260505231208 17 65 1.6 3.2 0.00 1.12 1.12 97 1006.9
20260505230706 17 145 1.6 4.8 0.00 1.12 1.12 97 1007.2
20260505230202 17 79 1.6 3.2 0.00 1.12 1.12 97 1007.4
20260505225659 17 37 0.0 1.6 0.00 1.12 1.12 97 1007.0
20260505225155 17 277 3.2 4.8 0.18 1.12 1.12 97 1007.0
20260505224651 17 301 6.4 6.4 0.18 1.12 1.12 97 1006.9
20260505224149 17 54 1.6 3.2 0.00 1.09 1.09 97 1007.0
20260505223646 17 26 1.6 1.6 0.13 1.09 1.09 97 1007.2
20260505223142 17 11 1.6 1.6 0.13 1.09 1.09 97 1007.2
20260505222638 17 153 3.2 4.8 0.00 1.07 1.07 97 1007.4
20260505222135 17 346 3.2 3.2 0.00 1.07 1.07 97 1007.4
20260505221632 17 12 3.2 4.8 0.18 1.07 1.07 97 1007.5
20260505221128 17 223 3.2 9.7 0.18 1.07 1.07 97 1007.7
20260505220626 17 236 4.8 6.4 0.13 1.04 1.04 97 1007.5
20260505220124 17 317 3.2 3.2 0.13 1.04 1.04 97 1007.4
20260505215621 17 38 3.2 4.8 0.00 1.02 1.02 97 1007.7
20260505215119 17 330 1.6 3.2 0.00 1.02 1.02 97 1007.6
20260505214617 17 47 3.2 4.8 0.18 1.02 1.02 97 1007.5
20260505214114 17 34 1.6 1.6 0.18 1.02 1.02 97 1007.7
20260505213611 17 299 3.2 4.8 0.00 0.99 0.99 97 1007.5
20260505213108 17 339 3.2 4.8 0.13 0.99 0.99 97 1007.7
20260505212604 17 57 0.0 0.0 0.13 0.99 0.99 97 1007.6
20260505212102 17 336 4.8 4.8 0.18 0.97 0.97 97 1007.5
20260505211558 17 68 1.6 1.6 0.18 0.97 0.97 96 1007.6
20260505211055 17 253 6.4 11.3 0.18 0.94 0.94 96 1007.6
20260505210551 17 76 4.8 4.8 0.18 0.94 0.94 96 1008.0
20260505210049 17 278 4.8 12.9 0.13 0.91 0.91 96 1007.7
20260505205547 17 42 4.8 6.4 0.13 0.91 0.91 95 1007.8
20260505205044 17 18 3.2 6.4 0.00 0.89 0.89 95 1007.8
20260505204541 17 332 3.2 3.2 0.00 0.89 0.89 95 1007.6
20260505204038 17 128 1.6 3.2 0.00 0.89 0.89 94 1007.7
20260505203535 17 225 6.4 9.7 0.00 0.89 0.89 94 1007.6
20260505203032 17 14 3.2 3.2 0.00 0.89 0.89 94 1007.6
20260505202528 17 289 4.8 6.4 0.00 0.89 0.89 94 1007.7
20260505202024 17 114 1.6 3.2 0.00 0.89 0.89 94 1007.9
20260505201521 17 70 3.2 4.8 0.00 0.89 0.89 94 1007.8
20260505201019 17 264 3.2 11.3 0.00 0.89 0.89 95 1007.5
20260505200517 17 256 4.8 6.4 0.00 0.89 0.89 95 1007.8
20260505200013 17 296 3.2 4.8 0.00 0.89 0.89 94 1007.7
20260505195509 18 66 1.6 1.6 0.18 0.89 0.89 94 1007.6
20260505195007 18 147 1.6 4.8 0.30 0.89 0.89 93 1007.7
20260505194504 18 71 3.2 3.2 0.30 0.86 0.86 93 1007.7
20260505194004 18 226 1.6 3.2 0.18 0.84 0.84 93 1007.6
20260505193502 18 4 3.2 4.8 0.00 0.81 0.81 92 1007.6
20260505192959 18 1 8.0 9.7 0.00 0.81 0.81 91 1007.6
20260505192458 18 29 3.2 3.2 0.00 0.81 0.81 91 1007.9
20260505191954 18 69 1.6 1.6 0.00 0.81 0.81 91 1007.8
20260505191453 18 336 4.8 6.4 0.00 0.81 0.81 91 1008.1
20260505190950 18 35 0.0 1.6 0.00 0.81 0.81 91 1007.7
20260505190445 18 77 3.2 3.2 0.00 0.81 0.81 92 1008.0
20260505185940 18 152 3.2 3.2 0.00 0.81 0.81 92 1008.1
20260505185438 18 189 3.2 3.2 0.00 0.81 0.81 93 1008.3
20260505184934 17 98 3.2 4.8 0.00 0.81 0.81 95 1008.0
20260505184431 17 35 0.0 1.6 0.00 0.81 0.81 95 1008.1
20260505183928 17 74 0.0 1.6 0.00 0.81 0.81 95 1008.1
20260505183425 17 88 3.2 3.2 0.00 0.81 0.81 95 1008.4
20260505182921 17 41 1.6 1.6 0.00 0.81 0.81 95 1008.5
20260505182418 17 260 3.2 4.8 0.00 0.81 0.81 95 1008.7
20260505181915 17 64 1.6 1.6 0.13 0.81 0.81 94 1008.9
20260505181412 17 53 3.2 3.2 0.13 0.81 0.81 94 1008.9
20260505180909 17 306 3.2 3.2 0.00 0.79 0.79 94 1009.1
20260505180405 17 24 0.0 1.6 0.18 0.79 0.79 94 1009.1
20260505175902 17 43 1.6 1.6 0.30 0.79 0.79 94 1009.0
20260505175358 17 167 0.0 0.0 0.43 0.76 0.76 94 1009.2
20260505174854 17 352 0.0 1.6 0.30 0.74 0.74 93 1009.2
20260505174352 17 68 1.6 1.6 0.30 0.71 0.71 93 1009.1
20260505173848 17 58 1.6 3.2 0.18 0.69 0.69 92 1009.0
20260505173345 17 144 1.6 1.6 0.00 0.66 0.66 91 1009.5
20260505172842 17 77 1.6 1.6 0.00 0.66 0.66 91 1009.2
20260505172340 17 58 0.0 1.6 0.00 0.66 0.66 91 1009.2
20260505171839 17 70 3.2 3.2 0.00 0.66 0.66 90 1009.5
20260505171336 17 36 1.6 1.6 0.00 0.66 0.66 90 1009.3
20260505170833 17 39 1.6 1.6 0.00 0.66 0.66 89 1009.3
20260505170329 17 53 0.0 1.6 0.00 0.66 0.66 90 1009.4
20260505165825 17 48 0.0 1.6 0.00 0.66 0.66 90 1009.5
20260505165321 17 314 1.6 3.2 0.00 0.66 0.66 90 1009.5
20260505164816 17 51 1.6 3.2 0.00 0.66 0.66 91 1009.5
20260505164314 17 32 1.6 1.6 0.00 0.66 0.66 91 1009.7
20260505163812 17 29 1.6 3.2 0.00 0.66 0.66 91 1009.5
20260505163310 17 350 1.6 3.2 0.00 0.66 0.66 91 1009.5
20260505162808 17 2 0.0 1.6 0.00 0.66 0.66 91 1009.7
20260505162306 17 54 0.0 1.6 0.00 0.66 0.66 91 1010.0
20260505161801 17 65 1.6 1.6 0.00 0.66 0.66 91 1009.7
20260505161258 17 163 4.8 4.8 0.00 0.66 0.66 90 1009.8
20260505160756 17 260 3.2 6.4 0.00 0.66 0.66 90 1009.6
20260505160253 17 54 1.6 1.6 0.00 0.66 0.66 90 1009.8
20260505153232 16 96 1.6 1.6 0.00 0.66 0.66 92 1009.5
20260505152730 16 40 1.6 3.2 0.00 0.66 0.66 93 1009.7
20260505152226 16 64 0.0 0.0 0.00 0.66 0.66 94 1009.5
20260505151726 16 70 1.6 3.2 0.00 0.66 0.66 94 1009.5
20260505151224 15 329 1.6 3.2 0.00 0.66 0.66 94 1009.1
20260505150720 15 77 3.2 4.8 0.00 0.66 0.66 95 1009.4
20260505150218 15 260 8.0 11.3 0.00 0.66 0.66 95 1009.2
20260505140651 15 47 0.0 0.0 0.61 0.48 0.48 93 1009.9
20260505140148 15 115 3.2 4.8 0.61 0.43 0.43 93 1010.2
20260505130111 17 18 1.6 1.6 0.00 0.00 0.00 70 1009.4
20260505124601 17 82 3.2 6.4 0.00 0.00 0.00 70 1009.4
20260505124057 17 59 1.6 3.2 0.00 0.00 0.00 71 1009.6
20260505123554 17 29 1.6 1.6 0.00 0.00 0.00 71 1009.5
20260505123050 17 105 3.2 4.8 0.00 0.00 0.00 71 1009.2
20260505122547 17 197 3.2 3.2 0.00 0.00 0.00 71 1009.3
20260505122044 17 54 1.6 1.6 0.00 0.00 0.00 72 1009.0
20260505121540 17 133 3.2 3.2 0.00 0.00 0.00 72 1009.2
20260505121038 17 66 0.0 1.6 0.00 0.00 0.00 72 1009.1
20260505120534 17 79 1.6 1.6 0.00 0.00 0.00 72 1009.0
20260505120029 16 81 1.6 1.6 0.00 0.00 0.00 72 1008.9
20260505115524 16 4 1.6 3.2 0.00 0.00 0.00 72 1008.9
20260505115022 16 257 3.2 3.2 0.00 0.00 0.00 72 1008.7